[[{"header":{"parameterUnit":"m.s-1","parameterCategory":1,"la1":30.2991,"la2":30.254,"lo1":-89.0895,"lo2":-89.0444,"dy":0.0017,"dx":0.0017,"nx":28,"ny":28,"refTime":"2025-05-28T03:00:00:Z","depth":0,"parameterNumber":2,"parameterNumberName":"U-component_of_WINDS"},"data":[0,0,0,0,0,0,0,0,0,0,0,0,0,0,0,0,0,0,0,0,0,0,0,0,0,0,0,0,0,0,0,0,0,0,0,0,0,0,0,0,0,0,0,0,0,0,0,0,0,0,0,0,0,0,0,0,0,0,4.2703,4.2705,0,4.2953,4.2955,4.2958,4.2981,4.2979,4.2976,4.2974,4.3222,4.3231,4.324,0,0,0,0,0,0,0,0,0,0,0,0,0,4.2239,4.2247,4.2702,4.2706,4.2709,4.2952,4.2955,4.2959,4.2982,4.2979,4.2976,4.2973,4.3219,4.323,4.3241,0,0,0,0,0,0,0,0,0,0,0,0,0,4.2459,4.225,4.2702,4.275,4.2757,4.2951,4.2956,4.296,4.2983,4.2979,4.2975,4.2971,4.3216,4.3229,4.3242,4.3404,0,0,4.3284,4.329,0,0,0,0,0,0,0,0,4.2447,4.2476,4.274,4.2747,4.2755,4.2932,4.2883,4.3109,4.2984,4.2897,4.2974,4.2969,4.3128,4.3149,4.3204,4.3416,4.3427,4.3285,4.3293,4.3299,4.3303,0,0,0,0,0,0,0,4.2431,4.2466,4.2801,4.2743,4.2753,4.2756,4.2784,4.2926,4.3031,4.2904,4.2906,4.2936,4.3132,4.3191,4.321,4.343,4.3285,4.3297,4.3305,4.331,4.3785,4.3789,0,0,0,0,0,0,4.2408,4.2453,4.2793,4.2809,4.2588,4.2768,4.2798,4.2879,4.303,4.3049,4.2939,4.2936,4.317,4.3194,4.3219,4.3416,4.3299,4.3312,4.3319,4.378,4.3786,4.3791,0,0,0,0,0,0,4.2398,4.2438,4.2783,4.2632,4.2676,4.278,4.2871,4.2886,4.2945,4.3056,4.3074,4.298,4.3168,4.32,4.3358,4.3425,4.3318,4.333,4.3775,4.3782,4.3788,4.3812,0,0,0,0,0,0,4.2385,4.2435,4.2499,4.2633,4.2684,4.292,4.2875,4.2894,4.2969,4.2968,4.31,4.3118,4.3167,4.3338,4.3371,4.3442,4.3341,4.3769,4.3778,4.3786,4.3806,4.3819,4.383,0,0,0,0,0,4.2368,4.2495,4.2502,4.2543,4.2767,4.2924,4.2953,4.3009,4.2975,4.3039,4.311,4.3114,4.3413,4.3354,4.3392,4.3467,4.3765,4.3776,4.3785,4.3801,4.3817,4.383,0,0,0,0,0,0,4.2363,4.2513,4.2523,4.2697,4.2798,4.2928,4.301,4.3024,4.3135,4.3128,4.3191,4.3221,4.3376,4.3438,4.3369,4.3631,4.3585,4.3604,4.3584,4.36,4.3612,4.3591,4.3352,0,0,0,0,0,4.2383,4.25,4.2624,4.2766,4.2817,4.2905,4.2975,4.301,4.3116,4.3158,4.3241,4.3341,4.3458,4.3533,4.3647,4.3817,4.3844,4.3887,4.3899,4.3909,4.3922,4.4014,4.4033,4.3824,4.3824,4.3823,0,0,4.2423,4.252,4.259,4.2768,4.285,4.2967,4.294,4.3066,4.3153,4.3176,4.333,4.3395,4.3511,4.3675,4.3752,4.3732,4.3987,4.3922,4.3928,4.3937,4.4026,4.4046,4.4063,4.383,4.3829,4.3828,0,0,4.2557,4.2644,4.277,4.2853,4.2979,4.3037,4.3067,4.3196,4.324,4.3397,4.3416,4.3519,4.372,4.3801,4.3868,4.4034,4.404,4.4069,4.4131,4.4219,4.4235,4.425,4.4305,4.4325,4.4083,4.4083,4.4083,0,4.2591,4.2771,4.2832,4.2958,4.3034,4.3064,4.319,4.3267,4.3423,4.3473,4.345,4.3701,4.3782,4.3964,4.4004,4.4059,4.4093,4.4052,4.4229,4.4244,4.4259,4.4312,4.4333,4.4086,4.4085,4.4085,4.4085,0,4.2804,4.2929,4.3016,4.3167,4.3253,4.3379,4.3456,4.3536,4.3564,4.3623,4.3781,4.3879,4.4012,4.4059,4.4086,4.4244,4.4228,4.4217,4.4171,4.428,4.4331,4.4352,4.4089,4.4088,4.4088,4.4087,0,0,4.2939,4.3123,4.3154,4.3222,4.3363,4.3459,4.3585,4.3718,4.3783,4.389,4.3994,4.4164,4.4154,4.423,4.4268,4.4346,4.4466,4.4324,4.4328,4.4343,4.4642,4.4646,4.4669,4.4473,4.4477,4.4481,4.463,0,4.3085,4.3312,4.3371,4.3562,4.3676,4.3707,4.3816,4.3913,4.3973,4.4076,4.4141,4.4259,4.4239,4.4285,4.4364,4.4434,4.4526,4.4425,4.4566,4.4571,4.4532,4.4696,4.4702,4.4839,4.4651,4.4655,4.4657,0,4.3285,4.3397,4.3601,4.3726,4.3776,4.3873,4.3998,4.4099,4.4208,4.4246,4.4332,4.4362,4.4492,4.4444,4.4621,4.4551,4.4613,4.4656,4.4663,4.4674,4.4617,4.4708,4.4884,4.4903,4.469,4.4687,4.4685,0,4.3357,4.356,4.3707,4.3765,4.3916,4.3983,4.4048,4.4155,4.423,4.434,4.4388,4.4511,4.4576,4.4669,4.473,4.469,4.4901,4.4858,4.4932,4.493,4.4971,4.4967,4.5155,4.5019,4.5018,4.5018,4.5017,0,4.3512,4.3633,4.3741,4.3831,4.3968,4.4035,4.4168,4.4234,4.4329,4.443,4.4464,4.4558,4.4635,4.4739,4.4788,4.4925,4.4955,4.4987,4.4997,4.4981,4.4976,4.5019,4.5009,4.5023,4.5022,4.5021,4.502,0,4.3613,4.3691,4.3852,4.3983,4.4019,4.4113,4.4224,4.4311,4.4373,4.45,4.4534,4.463,4.4754,4.4825,4.4981,4.5013,4.5164,4.5173,4.5127,4.5131,4.5199,4.519,4.5418,4.5449,4.5296,4.5297,4.5298,0,4.3704,4.3799,4.394,4.4012,4.4079,4.4194,4.4271,4.434,4.4419,4.4552,4.4622,4.4749,4.4853,4.5049,4.513,4.5249,4.5258,4.533,4.5275,4.5256,4.5254,4.5245,4.5254,4.5337,4.5338,4.5339,4.534,0,4.3856,4.389,4.4002,4.4127,4.4218,4.432,4.442,4.4476,4.4562,4.4648,4.4776,4.4857,4.5017,4.5141,4.5267,4.5331,4.5349,4.5358,4.538,4.5362,4.533,4.5344,4.5148,4.5351,4.535,4.5349,4.5348,4.5348,4.3953,4.4038,4.415,4.4272,4.4356,4.4449,4.4536,4.461,4.4719,4.4855,4.489,4.5023,4.513,4.5301,4.5369,4.5473,4.546,4.5493,4.5501,4.5507,4.5507,4.5318,4.5496,4.5496,4.5496,4.5496,4.5496,0,4.4103,4.4177,4.429,4.4429,4.4525,4.4538,4.4649,4.4727,4.4845,4.4944,4.5047,4.5193,4.5314,4.5406,4.5528,4.5593,4.5604,4.5623,4.5616,4.563,4.5514,4.548,4.5612,4.5612,4.5612,4.5612,4.5612,4.5612,4.4192,4.4335,4.4382,4.4566,4.4639,4.4772,4.4834,4.4919,4.4998,4.516,4.5261,4.5322,4.5417,4.5547,4.5657,4.5681,4.5722,4.5739,4.5763,4.5651,4.5639,4.5626,4.5595,4.5749,4.5749,4.5871,4.5872,4.5872]},{"header":{"parameterUnit":"m.s-1","parameterCategory":1,"la1":30.2991,"la2":30.254,"lo1":-89.0895,"lo2":-89.0444,"dy":0.0017,"dx":0.0017,"nx":28,"ny":28,"refTime":"2025-05-28T03:00:00:Z","depth":0,"parameterNumber":3,"parameterNumberName":"V-component_of_WINDS"},"data":[0,0,0,0,0,0,0,0,0,0,0,0,0,0,0,0,0,0,0,0,0,0,0,0,0,0,0,0,0,0,0,0,0,0,0,0,0,0,0,0,0,0,0,0,0,0,0,0,0,0,0,0,0,0,0,0,0,0,3.2957,3.296,0,3.3291,3.3295,3.3299,3.3296,3.3291,3.3287,3.3283,3.3643,3.3656,3.367,0,0,0,0,0,0,0,0,0,0,0,0,0,3.233,3.2342,3.2956,3.296,3.2965,3.329,3.3295,3.33,3.3297,3.3291,3.3286,3.3281,3.3638,3.3654,3.3671,0,0,0,0,0,0,0,0,0,0,0,0,0,3.2628,3.2345,3.2955,3.3002,3.3009,3.3289,3.3295,3.3301,3.3298,3.3291,3.3284,3.3278,3.3633,3.3653,3.3673,3.3934,0,0,3.3736,3.3745,0,0,0,0,0,0,0,0,3.2611,3.2651,3.2991,3.2999,3.3008,3.3244,3.3206,3.3514,3.3299,3.3189,3.3282,3.3275,3.3517,3.3546,3.3624,3.3951,3.3967,3.3738,3.375,3.3759,3.3765,0,0,0,0,0,0,0,3.259,3.2636,3.3089,3.2996,3.3006,3.3011,3.3046,3.3265,3.3387,3.3198,3.3198,3.3237,3.352,3.3605,3.3633,3.3972,3.3737,3.3756,3.3768,3.3776,3.453,3.4537,0,0,0,0,0,0,3.2558,3.2619,3.3079,3.3099,3.2788,3.3028,3.3067,3.3176,3.3384,3.3409,3.3242,3.3236,3.3573,3.3609,3.3646,3.3964,3.3759,3.3778,3.379,3.4523,3.4532,3.454,0,0,0,0,0,0,3.2544,3.2599,3.3065,3.2859,3.2919,3.3045,3.3168,3.3186,3.327,3.3418,3.3441,3.3305,3.3569,3.3617,3.3861,3.3977,3.3788,3.3806,3.4513,3.4525,3.4536,3.4604,0,0,0,0,0,0,3.2526,3.2594,3.2691,3.2861,3.293,3.3271,3.3175,3.3197,3.3303,3.3298,3.3483,3.3507,3.3567,3.383,3.3882,3.4002,3.3823,3.4504,3.4519,3.4532,3.4592,3.4617,3.4637,0,0,0,0,0,3.2504,3.2701,3.2696,3.2751,3.3053,3.3277,3.3317,3.3377,3.3312,3.3413,3.3508,3.3501,3.3955,3.3855,3.3913,3.4041,3.4497,3.4514,3.4531,3.4582,3.4612,3.4637,0,0,0,0,0,0,3.2547,3.2724,3.272,3.2977,3.3111,3.3276,3.3405,3.3407,3.3567,3.3555,3.3629,3.3671,3.3915,3.4003,3.3888,3.4305,3.4219,3.4249,3.4238,3.4267,3.4289,3.4264,3.384,0,0,0,0,0,3.2585,3.2747,3.2895,3.3108,3.3175,3.3278,3.3378,3.3412,3.3557,3.3615,3.3728,3.3873,3.4049,3.4163,3.4333,3.4605,3.4646,3.4722,3.4744,3.4762,3.4787,3.4938,3.4973,3.4597,3.4596,3.4596,0,0,3.2668,3.2785,3.2884,3.3119,3.3227,3.3398,3.3326,3.3511,3.3639,3.3646,3.3881,3.3969,3.4137,3.4395,3.4515,3.4477,3.49,3.4784,3.4797,3.4813,3.4959,3.4994,3.5026,3.4608,3.4606,3.4604,0,0,3.2906,3.3009,3.3197,3.3305,3.3467,3.3534,3.3579,3.3744,3.38,3.4037,3.4045,3.4202,3.4502,3.462,3.472,3.5,3.5,3.5054,3.5173,3.5319,3.5348,3.5375,3.5475,3.551,3.5079,3.5079,3.5079,0,3.299,3.3241,3.3295,3.3478,3.3582,3.3589,3.3782,3.3887,3.4099,3.4173,3.4125,3.45,3.4614,3.49,3.4967,3.5048,3.5104,3.5034,3.5338,3.5366,3.5392,3.5488,3.5525,3.5084,3.5084,3.5083,3.5083,0,3.3337,3.3512,3.3645,3.3841,3.3961,3.4149,3.4234,3.435,3.4374,3.4447,3.469,3.4825,3.5021,3.5092,3.512,3.5383,3.5354,3.5322,3.5237,3.5432,3.5524,3.5561,3.5092,3.509,3.5088,3.5087,0,0,3.3612,3.3833,3.3881,3.397,3.4148,3.4287,3.4477,3.4662,3.476,3.4907,3.5069,3.5322,3.5292,3.5405,3.5446,3.5574,3.5787,3.5527,3.5532,3.557,3.6086,3.6109,3.615,3.5788,3.5795,3.5801,3.6072,0,3.3868,3.4196,3.425,3.4541,3.4703,3.4712,3.4877,3.5007,3.5081,3.5234,3.5319,3.5496,3.5443,3.5511,3.5638,3.5734,3.5892,3.5715,3.5943,3.595,3.59,3.6198,3.6224,3.6473,3.6108,3.6114,3.6119,0,3.4211,3.4358,3.4663,3.4817,3.4888,3.5035,3.5209,3.5354,3.5503,3.5548,3.5672,3.5698,3.5899,3.5804,3.6083,3.5962,3.6059,3.612,3.6131,3.6155,3.6046,3.6231,3.6554,3.6591,3.6176,3.6171,3.6167,0,3.438,3.4656,3.4874,3.495,3.5136,3.5239,3.5322,3.5463,3.5572,3.5726,3.5798,3.5976,3.6074,3.6214,3.6288,3.6212,3.6563,3.6474,3.6609,3.6607,3.6683,3.6677,3.7026,3.6745,3.6744,3.6744,3.6743,0,3.466,3.4847,3.4951,3.5086,3.5296,3.5357,3.5565,3.5647,3.5772,3.5926,3.5947,3.6092,3.6181,3.6341,3.6401,3.6623,3.6668,3.6713,3.6727,3.6711,3.6705,3.6776,3.6761,3.6754,3.6751,3.6749,3.6748,0,3.4885,3.4962,3.52,3.5355,3.5398,3.5546,3.5681,3.5814,3.5886,3.608,3.613,3.6246,3.6434,3.6521,3.6756,3.6797,3.7049,3.7052,3.6997,3.7002,3.7131,3.7118,3.7538,3.7597,3.7276,3.7279,3.7282,0,3.5059,3.5201,3.5369,3.547,3.5554,3.5718,3.5826,3.5893,3.6007,3.6185,3.6298,3.6485,3.6638,3.6939,3.7048,3.7228,3.7235,3.7369,3.7262,3.7241,3.7237,3.7227,3.7242,3.7389,3.7392,3.7395,3.7397,0,3.5358,3.5389,3.5541,3.5707,3.5834,3.597,3.6104,3.6187,3.6276,3.6403,3.6591,3.671,3.6946,3.7133,3.7319,3.7411,3.7421,3.7429,3.747,3.7456,3.7417,3.7439,3.705,3.742,3.7417,3.7416,3.7415,3.7414,3.5564,3.569,3.5826,3.5996,3.6102,3.6225,3.6356,3.6443,3.6599,3.6792,3.6824,3.7026,3.7173,3.7422,3.7521,3.7683,3.7652,3.7711,3.7726,3.774,3.7746,3.739,3.7717,3.7717,3.7716,3.7716,3.7716,0,3.5864,3.5951,3.6106,3.6288,3.6422,3.6412,3.656,3.6674,3.6848,3.6981,3.713,3.7347,3.7528,3.7649,3.7833,3.794,3.7949,3.7986,3.798,3.8001,3.7764,3.771,3.7976,3.7975,3.7975,3.7975,3.7975,3.7975,3.6036,3.6249,3.6295,3.6562,3.665,3.6842,3.6927,3.7043,3.7148,3.7388,3.7535,3.7611,3.7741,3.7934,3.81,3.8132,3.8199,3.8237,3.8268,3.8045,3.8017,3.7992,3.7941,3.8251,3.8252,3.8492,3.8494,3.8495]}]]